Waarnemingen

Advertentie
Mijn weer
Menorca/Mahon, Spanje (8314): temperatuur & dauwpunt: 14.11.2017 00:00:00 - 20.11.2017 00:00:00 (CET)Menorca/Mahon, Spanje (8314): windsnelheid & windstoten: 14.11.2017 00:00:00 - 20.11.2017 00:00:00 (CET)Menorca/Mahon, Spanje (8314): windrichting: 14.11.2017 00:00:00 - 20.11.2017 00:00:00 (CET)Menorca/Mahon, Spanje (8314): luchtdruk: 14.11.2017 00:00:00 - 20.11.2017 00:00:00 (CET)Menorca/Mahon, Spanje (8314): zicht: 14.11.2017 00:00:00 - 20.11.2017 00:00:00 (CET)
Datum & Tijd tt [°C] td [°C] ff [km/u] ff [kn] fx [km/u] fx [kn] dd ppp [hPa] vv [km]
20.11.2017 00:00:00 10,4 8,8 8 4 - - NW 1023,2 -
19.11.2017 23:00:00 11,1 9,4 8 4 - - WNW 1022,8 -
19.11.2017 22:00:00 11,2 9,5 8 4 - - NW 1022,6 18
19.11.2017 21:00:00 11,8 9,9 11 6 - - NNW 1022,2 -
19.11.2017 20:00:00 12,6 10,3 9 5 - - NW 1021,8 -
19.11.2017 19:00:00 13,0 10,0 8 4 - - NW 1021,3 19
19.11.2017 18:00:00 14,4 9,8 5 3 - - NW 1020,8 -
19.11.2017 17:00:00 17,4 9,8 9 5 - - WNW 1020,3 -
19.11.2017 16:00:00 18,9 10,5 11 6 - - NNW 1020,1 22
19.11.2017 15:00:00 19,2 10,0 15 8 - - NNW 1020,1 -
19.11.2017 14:00:00 19,2 10,5 16 9 - - NNW 1020,4 22
19.11.2017 13:00:00 18,7 10,3 16 9 - - WNW 1020,7 25
19.11.2017 12:00:00 19,3 12,8 15 8 - - WNW 1021,2 -
19.11.2017 11:00:00 17,5 13,0 13 7 - - WNW 1021,5 -
19.11.2017 10:00:00 17,2 13,7 15 8 - - W 1021,1 25
19.11.2017 09:00:00 13,5 11,7 8 4 - - W 1021,1 -
19.11.2017 08:00:00 7,0 5,8 8 4 - - WNW 1021,0 25
19.11.2017 07:00:00 6,9 5,4 4 2 - - NW 1020,9 20
19.11.2017 06:00:00 7,8 5,8 5 3 - - NNW 1020,5 -
19.11.2017 05:00:00 10,4 8,2 13 7 - - NNW 1020,4 -
19.11.2017 04:00:00 9,1 7,5 9 5 - - NNW 1020,5 -
19.11.2017 03:00:00 9,3 7,2 8 4 - - NNW 1021,0 -
19.11.2017 02:00:00 10,3 8,4 9 5 - - NNW 1020,8 -
19.11.2017 01:00:00 9,9 7,8 11 6 - - NNW 1021,1 -
19.11.2017 00:00:00 10,3 8,1 11 6 - - NNW 1021,5 -
18.11.2017 23:00:00 10,5 8,3 11 6 - - NNW 1021,5 -
18.11.2017 22:00:00 10,0 7,4 11 6 - - N 1021,7 22
18.11.2017 21:00:00 10,9 8,3 15 8 - - N 1021,2 -
18.11.2017 20:00:00 10,4 7,8 11 6 - - N 1020,9 -
18.11.2017 19:00:00 11,2 8,1 16 9 - - N 1020,9 25
18.11.2017 18:00:00 11,2 7,7 16 9 - - NNO 1020,3 -
18.11.2017 17:00:00 14,0 8,2 18 10 - - NNO 1019,9 -
18.11.2017 16:00:00 15,5 8,0 26 14 - - NNO 1019,7 25
18.11.2017 15:00:00 16,4 8,9 24 13 - - NNO 1019,5 -
18.11.2017 14:00:00 16,8 9,0 28 15 - - N 1019,7 25
18.11.2017 13:00:00 16,6 8,7 31 17 - - NNO 1020,0 25
18.11.2017 12:00:00 16,8 9,0 31 17 - - N 1020,3 -
18.11.2017 11:00:00 16,9 8,9 21 11 - - N 1020,3 -
18.11.2017 10:00:00 16,5 9,9 16 9 - - N 1020,1 25
18.11.2017 09:00:00 14,8 8,9 16 9 - - N 1020,0 -
18.11.2017 08:00:00 11,6 8,4 9 5 - - NNW 1019,7 25
18.11.2017 07:00:00 8,5 5,8 4 2 - - WNW 1019,4 20
18.11.2017 06:00:00 10,7 7,5 8 4 - - NNW 1018,9 -
18.11.2017 05:00:00 11,3 7,4 9 5 - - N 1019,0 -
18.11.2017 04:00:00 11,1 8,0 13 7 - - N 1019,0 -
18.11.2017 03:00:00 10,8 8,0 11 6 - - NW 1019,0 -
18.11.2017 02:00:00 10,7 7,9 11 6 - - NNW 1019,2 -
18.11.2017 01:00:00 10,1 6,8 8 4 - - N 1019,5 -
18.11.2017 00:00:00 10,2 6,2 9 5 - - N 1019,4 -
17.11.2017 23:00:00 11,1 6,6 11 6 - - NNW 1019,4 -
17.11.2017 22:00:00 11,4 6,6 11 6 - - NW 1019,2 25
17.11.2017 21:00:00 11,4 6,3 11 6 - - NNW 1019,0 -
17.11.2017 20:00:00 11,5 6,2 9 5 - - NNW 1019,0 -
17.11.2017 19:00:00 12,3 6,6 8 4 - - NNW 1018,7 25
17.11.2017 18:00:00 14,4 8,1 5 3 - - NW 1018,4 -
17.11.2017 17:00:00 17,0 9,7 18 10 - - NNW 1017,9 -
17.11.2017 16:00:00 19,1 9,2 15 8 - - NW 1017,9 25
17.11.2017 15:00:00 19,2 7,0 16 9 - - NW 1018,2 -
17.11.2017 14:00:00 19,3 6,1 21 11 - - NNW 1018,7 25
17.11.2017 13:00:00 19,4 6,6 18 10 - - NNW 1018,9 25
17.11.2017 12:00:00 18,9 8,0 15 8 - - NNW 1019,4 -
17.11.2017 11:00:00 18,0 12,2 11 6 - - NW 1020,0 -
17.11.2017 10:00:00 16,4 12,3 11 6 - - NW 1020,0 25
17.11.2017 09:00:00 13,9 12,2 8 4 - - NNW 1020,0 -
17.11.2017 08:00:00 11,1 9,8 8 4 - - NW 1019,8 25
17.11.2017 07:00:00 10,8 9,4 9 5 - - WNW 1019,5 25
17.11.2017 06:00:00 10,5 9,3 11 6 - - NW 1019,5 -
17.11.2017 05:00:00 9,8 8,4 11 6 - - NNW 1019,8 -
17.11.2017 04:00:00 9,2 8,0 13 7 - - NW 1019,9 -
17.11.2017 03:00:00 8,7 7,1 5 3 - - NW 1020,1 -
17.11.2017 02:00:00 9,4 7,7 11 6 - - NNW 1020,2 -
17.11.2017 01:00:00 9,8 8,1 15 8 - - N 1020,4 -
17.11.2017 00:00:00 10,2 8,6 13 7 - - N 1020,9 -
16.11.2017 23:00:00 10,3 8,9 13 7 - - N 1020,8 -
16.11.2017 22:00:00 10,4 8,9 13 7 - - NNW 1020,8 20
16.11.2017 21:00:00 10,7 9,0 8 4 - - N 1020,7 -
16.11.2017 20:00:00 10,8 8,9 9 5 - - N 1020,4 -
16.11.2017 19:00:00 11,9 9,5 9 5 - - N 1020,2 22
16.11.2017 18:00:00 12,5 9,3 11 6 - - N 1019,8 -
16.11.2017 17:00:00 15,7 10,7 11 6 - - N 1019,3 -
16.11.2017 16:00:00 16,9 10,3 18 10 - - NNO 1019,3 25
16.11.2017 15:00:00 17,9 8,8 16 9 - - NNO 1019,2 -
16.11.2017 14:00:00 18,4 8,8 13 7 - - NNO 1019,3 25
16.11.2017 13:00:00 18,1 9,3 16 9 - - NNO 1019,7 25
16.11.2017 12:00:00 17,6 9,6 16 9 - - N 1020,2 -
16.11.2017 11:00:00 16,6 9,8 18 10 - - N 1020,6 -
16.11.2017 10:00:00 14,4 8,6 16 9 - - NNO 1020,4 25
16.11.2017 09:00:00 13,5 7,9 16 9 - - N 1019,9 -
16.11.2017 08:00:00 10,2 7,3 22 12 - - N 1019,3 25
16.11.2017 07:00:00 9,9 5,7 8 4 - - N 1019,3 22
16.11.2017 06:00:00 8,8 5,2 8 4 - - NNW 1018,9 -
16.11.2017 05:00:00 9,0 5,8 13 7 - - N 1018,9 -
16.11.2017 04:00:00 8,9 6,3 9 5 - - NNW 1018,8 -
16.11.2017 03:00:00 9,1 6,2 8 4 - - NNW 1019,1 -
16.11.2017 02:00:00 9,7 6,2 5 3 - - NW 1019,1 -
16.11.2017 01:00:00 9,7 6,2 8 4 - - NW 1019,1 -
16.11.2017 00:00:00 9,4 5,9 11 6 - - NW 1019,3 -
15.11.2017 23:00:00 9,2 5,2 5 3 - - WNW 1019,4 -
15.11.2017 22:00:00 9,8 5,6 9 5 - - NNW 1019,2 22
15.11.2017 21:00:00 9,7 5,6 13 7 - - N 1019,2 -
15.11.2017 20:00:00 9,8 5,2 11 6 - - NNW 1019,3 -
15.11.2017 19:00:00 9,9 4,3 4 2 - - NW 1019,0 24
15.11.2017 18:00:00 11,1 4,5 11 6 - - N 1018,6 -
15.11.2017 17:00:00 13,9 4,5 15 8 - - N 1018,0 -
15.11.2017 16:00:00 15,2 5,0 21 11 - - N 1017,9 28
15.11.2017 15:00:00 15,8 5,9 22 12 - - NNW 1017,7 -
15.11.2017 14:00:00 16,4 5,9 24 13 - - N 1018,0 27
15.11.2017 13:00:00 16,1 5,5 22 12 - - NNW 1018,4 28
15.11.2017 12:00:00 16,3 5,6 21 11 - - NNW 1018,9 -
15.11.2017 11:00:00 15,6 6,0 26 14 - - N 1018,8 -
15.11.2017 10:00:00 14,6 5,1 28 15 - - N 1018,9 -
15.11.2017 09:00:00 13,5 4,9 24 13 - - N 1018,8 -
15.11.2017 08:00:00 12,0 3,2 22 12 - - N 1018,7 22
15.11.2017 07:00:00 11,4 3,4 22 12 - - N 1018,3 20
15.11.2017 06:00:00 11,7 3,7 22 12 - - N 1017,8 -
15.11.2017 05:00:00 11,6 4,6 26 14 - - N 1017,7 -
15.11.2017 04:00:00 11,5 4,9 26 14 - - N 1017,9 -
15.11.2017 03:00:00 11,1 5,4 24 13 - - N 1018,0 -
15.11.2017 02:00:00 11,2 5,7 24 13 - - N 1018,3 -
15.11.2017 01:00:00 11,5 5,6 26 14 - - N 1018,4 -
15.11.2017 00:00:00 11,7 6,2 29 16 - - N 1018,8 -
14.11.2017 23:00:00 11,4 6,1 24 13 - - N 1018,8 -
14.11.2017 22:00:00 11,6 5,9 29 16 - - N 1019,1 15
14.11.2017 21:00:00 11,6 5,7 31 17 - - N 1018,6 -
14.11.2017 20:00:00 11,6 5,7 29 16 - - N 1018,1 -
14.11.2017 19:00:00 11,6 5,1 31 17 - - N 1018,0 15
14.11.2017 18:00:00 11,5 5,4 35 19 - - N 1017,1 -
14.11.2017 17:00:00 12,2 5,1 41 22 - - N 1016,5 -
14.11.2017 16:00:00 12,8 5,9 34 18 - - N 1016,2 20
14.11.2017 15:00:00 12,0 5,6 34 18 - - N 1016,3 -
14.11.2017 14:00:00 12,2 5,4 39 21 - - N 1016,4 20
14.11.2017 13:00:00 12,0 4,9 44 24 - - N 1016,4 20
14.11.2017 12:00:00 12,0 4,9 50 27 - - N 1016,5 -
14.11.2017 11:00:00 11,6 4,4 44 24 - - N 1016,5 -
14.11.2017 10:00:00 11,4 4,4 39 21 - - N 1016,2 15
14.11.2017 09:00:00 10,7 4,4 39 21 - - N 1015,8 -
14.11.2017 08:00:00 10,3 4,6 34 18 - - N 1015,1 15
14.11.2017 07:00:00 10,1 4,5 46 25 - - N 1014,5 15
14.11.2017 06:00:00 - - - - - - - - -
14.11.2017 05:00:00 - - - - - - - - -
14.11.2017 04:00:00 - - - - - - - - -
14.11.2017 03:00:00 - - - - - - - - -
14.11.2017 02:00:00 - - - - 81 44 - - -
14.11.2017 01:00:00 8,7 5,2 35 19 - - N 1013,2 -
14.11.2017 00:00:00 9,2 5,2 41 22 81 44 N 1012,8 -

tt = temperatuur
td = dauwpunt
ff = windsnelheid
fx = windstoten
dd = windrichting
ppp = luchtdruk
vv = zicht

Weerstations in de omgeving